Location: Newark
(36.1358°N, 115.1208°W)
Time: 00:36:56
(UTC+00:00)

ISS - Pass Details

Date: 01 October 2021
Orbit: 417 x 423 km, 51.6° (Epoch: 25 October)

Event Time Altitude Azimuth Distance (km) Brightness Sun altitude
Rises 02:49:00 0° 324° (NW) 2,365 0.8 -17.8°
Reaches altitude 10° 02:51:59 10° 353° (N) 1,500 -0.8 -18.4°
Enters shadow 02:53:26 13° 19° (NNE) 1,318 -1.3 -18.6°
